FW2057 Weather Reports


Display with metric or nautical units.
time (UTC)temp
F
wind
direction
speed
MPH
gust
MPH
rain 1hr
in
rain 24hr
in
rain mn
in
humidity
%
barometer
mb
20220814154512 85 165 4.0 8.0 0.00 0.00 0.00 64 1019.0
20220814153013 86 125 5.0 10.0 0.00 0.00 0.00 66 1018.9
20220814151537 85 131 5.0 9.0 0.00 0.00 0.00 67 1018.7
20220814150042 83 121 3.0 6.0 0.00 0.00 0.00 71 1018.7
20220814144545 84 94 5.0 9.0 0.00 0.00 0.00 71 1018.6
20220814143107 82 154 2.0 7.0 0.00 0.00 0.00 75 1018.6
20220814143024 82 154 2.0 7.0 0.00 0.00 0.00 75 1018.6
20220814141511 80 165 2.0 7.0 0.00 0.00 0.00 79 1018.6
20220814140055 78 111 2.0 7.0 0.00 0.00 0.00 83 1018.4
20220814134558 77 111 1.0 4.0 0.00 0.00 0.00 83 1018.3
20220814134516 77 111 1.0 4.0 0.00 0.00 0.00 83 1018.3
20220814133042 76 127 2.0 5.0 0.00 0.00 0.00 87 1018.2
20220814131523 73 130 1.0 4.0 0.00 0.00 0.00 93 1018.1
20220814130106 73 130 1.0 4.0 0.00 0.00 0.00 93 1018.2
20220814130024 73 130 1.0 4.0 0.00 0.00 0.00 93 1018.2
20220814124555 72 131 0.0 1.0 0.00 0.00 0.00 93 1018.1
20220814124512 72 131 0.0 1.0 0.00 0.00 0.00 93 1018.1
20220814123056 71 131 0.0 0.0 0.00 0.00 0.00 89 1017.8
20220814123014 71 131 0.0 0.0 0.00 0.00 0.00 89 1017.8
20220814121516 71 131 0.0 0.0 0.00 0.00 0.00 89 1017.8
20220814120018 71 131 0.0 0.0 0.00 0.00 0.00 88 1017.6
20220814114606 71 131 0.0 0.0 0.00 0.00 0.00 87 1017.6
20220814114524 71 131 0.0 0.0 0.00 0.00 0.00 87 1017.6
20220814113047 71 131 0.0 0.0 0.00 0.00 0.00 85 1017.5
20220814111612 72 131 0.0 0.0 0.00 0.00 0.00 85 1017.4
20220814111529 72 131 0.0 0.0 0.00 0.00 0.00 85 1017.4
20220814110036 72 131 0.0 0.0 0.00 0.00 0.00 84 1017.2
20220814104558 72 131 0.0 0.0 0.00 0.00 0.00 84 1017.1
20220814103100 73 131 0.0 0.0 0.00 0.00 0.00 83 1017.1
20220814103017 73 131 0.0 0.0 0.00 0.00 0.00 83 1017.1
20220814101525 73 131 0.0 2.0 0.00 0.00 0.00 83 1017.0
20220814100047 74 131 1.0 3.0 0.00 0.00 0.00 83 1016.9
20220814094610 74 131 0.0 3.0 0.00 0.00 0.00 83 1017.0
20220814093034 74 131 2.0 4.0 0.00 0.00 0.00 83 1017.1
20220814091517 73 132 2.0 3.0 0.00 0.00 0.00 83 1017.1
20220814090039 73 133 0.0 2.0 0.00 0.00 0.00 82 1017.0
20220814084606 73 133 0.0 0.0 0.00 0.00 0.00 81 1017.1
20220814083046 74 133 0.0 0.0 0.00 0.00 0.00 80 1017.2
20220814081610 74 133 0.0 0.0 0.00 0.00 0.00 79 1017.1
20220814080013 75 133 0.0 0.0 0.00 0.00 0.00 79 1017.2
20220814074515 75 132 0.0 0.0 0.00 0.00 0.00 77 1017.2
20220814073038 76 132 0.0 0.0 0.00 0.00 0.00 77 1017.0
20220814071525 76 133 0.0 0.0 0.00 0.00 0.00 76 1017.0
20220814070047 77 132 0.0 0.0 0.00 0.00 0.00 76 1017.0
20220814064528 77 133 0.0 3.0 0.00 0.00 0.00 75 1017.2
20220814063013 77 133 0.0 1.0 0.00 0.00 0.00 74 1017.2
20220814061516 77 133 0.0 2.0 0.00 0.00 0.00 73 1017.4
20220814060100 78 133 1.0 2.0 0.00 0.00 0.00 73 1017.5
20220814054520 78 133 1.0 3.0 0.00 0.00 0.00 72 1017.4
20220814053107 78 133 0.0 2.0 0.00 0.00 0.00 72 1017.5
20220814051549 79 133 0.0 1.0 0.00 0.00 0.00 72 1017.3
20220814050010 80 133 0.0 0.0 0.00 0.00 0.00 69 1017.2
20220814044559 81 133 0.0 0.0 0.00 0.00 0.00 68 1017.1
20220814043100 81 133 1.0 3.0 0.00 0.00 0.00 67 1017.0
20220814043018 81 133 1.0 3.0 0.00 0.00 0.00 67 1017.0
20220814041543 82 144 2.0 9.0 0.00 0.00 0.00 66 1017.1
20220814040048 82 150 2.0 5.0 0.00 0.00 0.00 65 1017.1
20220814034529 83 150 2.0 7.0 0.00 0.00 0.00 63 1016.9
20220814033051 83 132 3.0 8.0 0.00 0.00 0.00 62 1016.8
20220814031537 83 111 2.0 7.0 0.00 0.00 0.00 61 1016.7
20220814030038 82 115 3.0 10.0 0.00 0.00 0.00 60 1016.5
20220814024541 83 98 0.0 0.0 0.00 0.00 0.00 61 1016.2
20220814023103 84 98 0.0 0.0 0.00 0.00 0.00 58 1016.1
20220814023021 84 98 0.0 0.0 0.00 0.00 0.00 58 1016.1
20220814021606 85 98 0.0 2.0 0.00 0.00 0.00 56 1015.9
20220814021524 85 98 0.0 2.0 0.00 0.00 0.00 56 1015.9
20220814020022 86 98 2.0 3.0 0.00 0.00 0.00 53 1015.9
20220814014548 87 98 1.0 2.0 0.00 0.00 0.00 52 1015.9
20220814013045 88 98 1.0 2.0 0.00 0.00 0.00 50 1015.8
20220814011548 89 98 1.0 4.0 0.00 0.00 0.00 48 1015.8
20220814010012 90 83 3.0 6.0 0.00 0.00 0.00 47 1015.7
20220814004556 90 78 1.0 3.0 0.00 0.00 0.00 47 1015.5
20220814003015 91 101 3.0 7.0 0.00 0.00 0.00 46 1015.6
20220814001555 91 112 1.0 3.0 0.00 0.00 0.00 45 1015.5
20220814000030 92 113 1.0 3.0 0.00 0.00 0.00 45 1015.3
20220813234545 92 113 1.0 7.0 0.00 0.00 0.00 44 1015.2
20220813233017 93 112 2.0 8.0 0.00 0.00 0.00 43 1015.3
20220813231515 95 105 5.0 12.0 0.00 0.00 0.00 39 1015.4
20220813230111 96 48 2.0 5.0 0.00 0.00 0.00 38 1015.2
20220813224604 94 103 3.0 8.0 0.00 0.00 0.00 40 1015.5
20220813224522 94 103 3.0 8.0 0.00 0.00 0.00 40 1015.5
20220813223057 97 348 3.0 9.0 0.00 0.00 0.00 36 1015.6
20220813223015 97 348 3.0 9.0 0.00 0.00 0.00 36 1015.6
20220813221535 97 123 3.0 11.0 0.00 0.00 0.00 35 1015.6
20220813220032 97 78 3.0 10.0 0.00 0.00 0.00 36 1015.8
20220813214515 97 111 5.0 10.0 0.00 0.00 0.00 36 1015.9
20220813213020 97 59 4.0 13.0 0.00 0.00 0.00 35 1016.0
20220813211522 98 117 4.0 10.0 0.00 0.00 0.00 34 1016.1
20220813210023 98 90 6.0 12.0 0.00 0.00 0.00 35 1016.3
20220813204532 97 61 4.0 10.0 0.00 0.00 0.00 35 1016.3
20220813203033 98 45 3.0 9.0 0.00 0.00 0.00 36 1016.6
20220813201515 97 91 6.0 12.0 0.00 0.00 0.00 35 1016.7
20220813200102 96 24 5.0 10.0 0.00 0.00 0.00 37 1016.9
20220813200020 96 24 5.0 10.0 0.00 0.00 0.00 37 1016.9
20220813194524 96 101 6.0 11.0 0.00 0.00 0.00 38 1017.2
20220813193025 96 112 3.0 10.0 0.00 0.00 0.00 39 1017.3
20220813191512 96 105 10.0 16.0 0.00 0.00 0.00 38 1017.7
20220813190034 96 50 5.0 14.0 0.00 0.00 0.00 39 1017.9
20220813184558 95 76 4.0 15.0 0.00 0.00 0.00 41 1018.1
20220813184516 95 76 4.0 15.0 0.00 0.00 0.00 41 1018.1
20220813183103 95 355 6.0 13.0 0.00 0.00 0.00 42 1018.4
20220813181523 94 78 4.0 13.0 0.00 0.00 0.00 45 1018.5
20220813180107 93 26 3.0 12.0 0.00 0.00 0.00 47 1018.6
20220813174554 93 42 4.0 11.0 0.00 0.00 0.00 48 1018.7
20220813173013 92 82 4.0 10.0 0.00 0.00 0.00 49 1018.9
20220813171517 92 128 6.0 13.0 0.00 0.00 0.00 51 1019.2
20220813170040 91 28 2.0 11.0 0.00 0.00 0.00 54 1019.3
20220813164525 90 130 5.0 10.0 0.00 0.00 0.00 53 1019.3
20220813163048 90 90 3.0 13.0 0.00 0.00 0.00 56 1019.4
20220813161530 89 30 4.0 13.0 0.00 0.00 0.00 57 1019.5
20220813160016 88 92 3.0 9.0 0.00 0.00 0.00 61 1019.6